This is the latest recevied weather packets stored in our database for station/object KK6MIG-13. If no packets are shown the sender has not sent any weather packets the latest 1 day(s).
| Time | Temp. | Humidity | Pressure | Rain* | Wind** | Luminosity | Snow |
|---|---|---|---|---|---|---|---|
| 1778019177 | 15° C | 1% | 1014.7 hPa | 0 mm | 4.47 m/s, 224° | 745 W/m² | - |
| 1778019111 | 15° C | 1% | 1014.7 hPa | 0 mm | 4.47 m/s, 221° | 745 W/m² | - |
| 1778019060 | 15° C | 1% | 1014.7 hPa | 0 mm | 4.47 m/s, 229° | 679 W/m² | - |
| 1778019055 | 15° C | 1% | 1014.7 hPa | 0 mm | 4.47 m/s, 252° | 679 W/m² | - |
| 1778018931 | 15° C | 1% | 1014.7 hPa | 0 mm | 4.47 m/s, 271° | 680 W/m² | - |
| 1778018874 | 15° C | 1% | 1014.8 hPa | 0 mm | 4.47 m/s, 239° | 737 W/m² | - |
| 1778018870 | 15° C | 1% | 1014.7 hPa | 0 mm | 4.47 m/s, 238° | 761 W/m² | - |
| 1778018745 | 15° C | 1% | 1014.7 hPa | 0 mm | 4.47 m/s, 249° | 721 W/m² | - |
| 1778018685 | 15° C | 1% | 1014.7 hPa | 0 mm | 4.47 m/s, 256° | 693 W/m² | - |
| 1778018625 | 15° C | 1% | 1014.7 hPa | 0 mm | 4.02 m/s, 218° | 735 W/m² | - |
| 1778018565 | 15° C | 1% | 1014.8 hPa | 0 mm | 4.02 m/s, 273° | 705 W/m² | - |
| 1778018500 | 15° C | 1% | 1014.7 hPa | 0 mm | 4.02 m/s, 246° | 679 W/m² | - |
| 1778018439 | 15° C | 1% | 1014.7 hPa | 0 mm | 4.02 m/s, 248° | 650 W/m² | - |
| 1778018379 | 15° C | 1% | 1014.7 hPa | 0 mm | 4.02 m/s, 244° | 621 W/m² | - |
| 1778018319 | 15° C | 1% | 1014.7 hPa | 0 mm | 4.02 m/s, 278° | 603 W/m² | - |
| 1778018259 | 15° C | 1% | 1014.7 hPa | 0 mm | 4.02 m/s, 235° | 663 W/m² | - |
| 1778018196 | 15° C | 1% | 1014.8 hPa | 0 mm | 4.02 m/s, 264° | 705 W/m² | - |
| 1778018136 | 15° C | 1% | 1014.7 hPa | 0 mm | 4.02 m/s, 253° | 761 W/m² | - |
| 1778018076 | 15° C | 1% | 1014.8 hPa | 0 mm | 4.02 m/s, 252° | 738 W/m² | - |
| 1778018015 | 15.56° C | 1% | 1014.7 hPa | 0 mm | 4.02 m/s, 236° | 694 W/m² | - |
| 1778017953 | 15° C | 1% | 1014.7 hPa | 0 mm | 4.02 m/s, 251° | 679 W/m² | - |
| 1778017888 | 15° C | 1% | 1014.7 hPa | 0 mm | 4.47 m/s, 283° | 638 W/m² | - |
| 1778017827 | 15.56° C | 1% | 1014.8 hPa | 0 mm | 4.02 m/s, 259° | 710 W/m² | - |
| 1778017767 | 15.56° C | 1% | 1014.8 hPa | 0 mm | 4.02 m/s, 227° | 751 W/m² | - |
| 1778017707 | 15.56° C | 1% | 1014.8 hPa | 0 mm | 4.47 m/s, 275° | 816 W/m² | - |
* Rain latest hour (hover to see other rain measurements)
** Current wind speed in m/s (hover to see current wind gust speed)